GFSGBSN_sfc_wetblb_159.txt.gz
Wetbulb
61.19 61.03 60.92 60.51 61.30 61.03 61.04 60.44 59.68 58.55 58.29 57.99 57.80 57.90 58.01 58.14 57.68 56.87 55.99 55.01 54.75 54.84 54.29 54.04 54.45 54.91 50.58 45.27 48.09 53.27 60.29 57.76 50.08 48.93 48.05 46.84 43.82 42.39 39.30 39.99 41.41 39.24 40.80 42.47 42.60 41.83 40.86
59.04 60.17 59.95 59.77 59.98 60.11 61.35 60.81 59.87 58.66 58.02 57.70 57.36 57.19 57.11 57.32 57.16 56.76 56.03 55.28 54.50 54.25 54.30 54.11 54.31 54.69 44.75 42.85 53.75 51.07 50.33 48.68 47.90 47.42 46.24 45.30 44.00 44.56 41.86 40.61 39.33 42.13 41.88 42.32 42.87 42.12 41.46
57.74 58.06 59.16 59.36 59.14 59.22 59.59 59.58 59.48 59.02 58.32 57.80 57.46 57.16 56.78 56.93 56.79 56.39 55.97 55.35 54.45 54.13 54.11 54.31 53.47 50.89 44.52 45.10 49.76 48.92 49.85 47.83 47.99 48.22 45.11 46.44 45.85 43.12 42.64 40.61 42.98 41.52 39.05 40.78 41.56 42.37 42.45
55.88 57.47 57.70 57.90 58.56 58.36 58.06 57.98 58.79 59.08 58.65 58.14 57.84 56.98 56.37 56.36 56.20 55.89 55.55 54.82 54.25 54.17 54.46 54.15 53.11 47.75 40.32 51.78 50.41 51.97 49.21 49.60 50.31 47.46 47.07 47.42 46.44 43.55 41.60 42.50 40.77 37.40 37.11 34.70 40.57 40.89 40.82
55.31 55.73 56.75 56.82 57.04 57.68 57.64 57.46 57.62 58.51 58.84 58.23 57.73 57.15 56.21 55.77 55.41 55.12 54.96 54.60 54.25 54.70 54.32 54.36 45.77 44.61 44.20 54.91 50.35 51.65 49.59 48.20 47.75 48.03 47.70 49.09 44.60 40.51 40.54 35.47 33.60 34.51 30.71 32.69 36.83 38.63 37.97
53.97 55.14 55.32 55.90 56.33 56.69 57.50 57.22 57.04 56.83 57.55 57.83 57.57 57.17 56.51 55.71 55.17 54.51 54.09 53.78 54.07 52.96 49.57 48.35 48.26 42.72 48.28 47.75 51.17 48.83 47.26 47.77 45.14 46.04 44.04 42.38 38.86 35.52 34.50 32.97 28.81 30.72 31.19 33.97 32.36 36.29 37.12
53.29 54.33 55.00 55.43 55.66 56.37 57.14 57.81 56.61 55.96 56.06 57.01 57.31 57.11 56.55 55.80 54.98 54.47 52.83 50.89 48.01 43.63 42.60 46.32 46.79 46.77 48.85 50.84 50.53 45.51 46.81 46.28 44.32 41.81 36.15 38.71 33.91 31.24 34.22 35.74 36.45 35.09 32.48 30.74 32.30 36.27 34.22
53.49 54.03 54.57 54.75 54.91 55.81 56.78 57.32 56.81 55.75 55.69 56.11 56.65 56.61 56.25 55.66 55.22 53.62 50.99 49.67 46.73 42.18 38.95 45.08 45.73 46.88 50.46 50.70 46.03 48.43 46.57 41.99 40.48 36.02 37.67 35.16 31.81 37.32 38.32 38.03 36.58 35.22 32.47 30.98 33.34 36.16 34.53
52.94 53.27 53.58 54.17 53.89 55.20 55.93 56.44 55.49 55.51 55.59 55.99 55.97 56.31 55.92 55.22 53.24 51.10 49.02 48.98 45.00 45.51 40.35 43.90 44.88 45.63 47.25 48.68 45.21 45.81 44.53 41.33 37.75 35.91 35.31 32.46 36.59 40.27 38.51 36.92 35.06 32.81 31.50 31.03 31.74 32.98 32.28
51.98 52.12 52.98 53.59 53.76 54.54 54.90 55.05 54.78 54.51 54.11 54.01 54.75 55.51 54.76 52.26 51.05 49.12 48.27 51.19 47.94 52.23 41.17 42.88 44.73 46.89 49.61 48.58 43.76 50.63 45.23 42.01 37.94 35.67 35.38 34.50 38.56 38.10 36.24 35.42 35.03 30.38 35.07 34.89 32.76 30.07 26.02
51.25 51.58 52.08 52.89 53.29 53.31 53.54 53.55 53.64 53.47 53.08 52.85 53.01 54.17 52.58 53.96 49.17 49.04 51.97 50.88 50.95 51.59 29.47 43.38 46.19 51.45 49.54 46.42 44.48 44.50 44.30 41.09 36.40 36.32 35.83 34.05 34.30 34.54 34.00 34.87 36.04 32.89 35.51 33.15 31.65 27.33 24.64
50.58 51.36 51.48 51.89 52.20 52.30 52.51 52.84 52.59 52.94 52.75 52.27 52.22 53.48 52.89 50.82 50.07 51.28 51.42 53.06 51.99 38.33 29.71 40.04 43.73 41.25 43.15 45.05 42.53 41.11 41.97 41.85 40.82 36.80 35.04 35.30 36.36 34.93 35.17 35.49 35.60 35.65 33.04 30.86 28.22 26.22 21.12
50.01 49.79 50.57 50.93 51.06 51.61 51.87 52.18 52.35 52.43 52.44 52.05 51.94 52.70 52.33 52.16 48.76 49.89 51.94 49.86 37.63 30.97 41.94 38.72 36.57 39.09 41.62 40.72 40.45 38.34 37.53 36.73 33.21 30.02 30.00 32.62 33.11 34.48 36.99 32.89 34.16 32.12 28.60 22.10 20.83 19.77 20.52
48.95 49.39 49.34 50.16 50.56 50.53 50.82 51.28 51.68 51.40 51.69 51.73 51.28 51.58 52.39 51.98 50.67 50.47 49.82 42.10 29.89 35.13 37.71 43.61 38.32 37.66 38.46 39.33 39.56 36.85 34.92 34.59 34.46 33.95 29.55 29.08 26.55 32.62 35.87 34.44 31.94 30.02 29.43 22.81 19.16 18.82 21.11
47.52 47.41 47.67 48.98 49.99 50.03 49.91 50.14 50.41 51.05 51.00 51.13 50.98 49.05 48.94 50.52 49.72 51.05 44.94 33.70 32.00 37.11 40.34 39.95 38.05 33.94 33.67 38.30 38.72 36.48 32.72 35.11 36.44 35.33 31.87 28.21 29.91 34.05 35.10 35.73 36.05 30.85 27.69 32.13 25.41 24.22 20.26
47.29 47.15 46.20 46.90 48.92 49.57 49.54 49.72 49.63 50.15 50.43 50.35 45.89 45.70 45.40 50.02 49.58 47.21 39.40 35.08 37.86 42.28 43.13 42.32 36.40 36.46 30.82 33.72 34.19 36.23 32.12 35.89 35.80 37.67 37.82 34.50 27.29 32.49 34.09 35.67 35.32 33.18 33.90 24.96 24.38 19.62 16.87
46.30 46.20 45.70 45.12 47.96 48.59 48.91 49.43 49.29 49.36 49.64 49.56 43.66 39.21 44.16 49.65 48.30 41.22 33.07 32.53 39.04 43.11 43.62 40.21 39.13 38.83 37.11 33.33 35.44 33.29 33.39 36.32 38.32 36.94 38.56 35.56 30.61 29.09 32.97 30.59 29.29 29.22 26.57 27.46 27.67 24.74 19.95
45.55 45.97 46.37 46.10 47.13 48.04 48.13 48.73 48.82 48.98 48.78 46.24 39.95 33.09 42.97 47.93 36.07 34.35 32.92 37.51 40.65 40.63 43.79 41.84 42.71 42.03 39.33 37.58 34.20 34.43 33.73 35.88 39.45 37.77 33.85 35.53 31.49 24.64 28.69 33.38 33.56 30.62 28.60 27.62 20.03 20.52 21.25
45.19 45.37 44.66 45.28 46.11 47.04 47.64 48.07 48.13 48.49 48.26 39.59 34.70 32.35 42.29 41.47 31.07 30.07 36.06 36.91 39.20 39.27 39.78 41.13 39.88 42.64 42.53 39.59 35.03 35.81 35.17 38.12 37.42 36.69 33.86 34.58 28.83 22.70 24.44 28.22 30.80 28.66 29.95 29.84 27.15 25.35 22.89
44.83 45.26 45.26 45.05 45.95 46.40 46.63 47.20 47.56 48.06 48.35 41.54 33.04 30.14 33.28 35.24 36.82 34.35 32.67 34.38 35.37 39.99 38.88 41.50 41.04 42.68 40.60 36.25 39.68 34.72 34.71 36.83 37.85 36.94 41.46 39.40 30.15 28.05 25.09 26.67 27.71 26.12 28.40 30.02 27.95 21.44 23.75
44.46 44.61 44.58 45.11 45.48 45.65 46.10 46.47 46.69 47.19 47.68 42.90 36.17 30.54 32.47 29.02 30.93 32.50 34.92 34.67 33.56 34.80 39.43 39.85 37.63 39.04 38.13 34.02 34.66 32.91 33.84 34.44 35.63 38.12 34.91 34.06 28.50 28.72 28.38 30.06 29.94 28.79 28.04 28.95 27.64 28.30 24.09
44.12 44.15 44.37 44.34 44.92 45.21 45.63 45.90 46.76 47.03 47.47 41.12 32.00 32.21 35.17 29.32 32.05 33.09 33.72 31.96 32.86 34.37 36.16 36.73 35.70 37.24 38.14 33.33 34.65 32.17 33.88 32.38 32.38 34.04 31.85 32.50 24.55 26.69 25.23 28.60 29.21 26.69 28.03 28.40 28.37 28.29 27.54
43.48 43.59 43.85 44.17 44.39 44.80 44.95 45.73 46.38 46.83 46.33 37.58 37.50 39.33 36.15 31.14 29.74 31.39 31.57 31.98 32.38 35.69 38.24 38.73 37.12 36.43 36.87 37.75 40.26 41.27 41.25 40.91 35.51 32.49 29.72 28.84 27.39 25.01 23.03 27.28 26.75 23.87 26.39 28.39 28.60 29.17 28.76
43.19 43.24 43.54 43.86 43.96 44.24 44.58 45.14 45.84 46.31 45.79 40.07 39.66 36.35 33.34 27.24 30.59 30.80 32.41 33.20 32.47 33.99 33.14 39.08 39.07 36.39 39.39 41.30 40.27 39.01 38.26 38.31 37.56 33.15 33.08 29.44 28.65 27.32 24.08 25.15 18.39 27.32 32.06 32.24 29.87 30.21 29.84
42.21 42.44 42.86 43.36 43.61 43.74 44.32 44.59 45.16 45.87 46.26 40.27 41.97 38.95 35.03 26.74 32.26 31.75 31.80 32.08 33.68 35.25 35.60 37.51 39.93 40.84 40.75 38.35 31.78 29.89 29.40 30.06 31.56 32.81 31.96 32.80 28.65 25.25 22.40 21.32 24.69 27.99 30.72 29.53 28.36 26.94 31.21
42.16 42.27 42.32 42.91 43.14 43.61 43.84 44.27 44.78 45.37 45.93 40.23 41.45 42.42 39.07 31.71 29.45 35.67 32.51 32.88 31.99 33.36 34.63 37.14 42.38 43.44 40.09 33.39 31.11 26.96 23.50 27.23 25.68 28.28 32.92 31.39 30.75 27.64 23.63 18.72 14.84 25.26 31.45 34.81 33.72 21.53 31.72
42.03 42.03 41.90 42.36 42.93 43.35 43.56 44.11 44.40 44.61 45.28 43.19 41.07 41.80 39.43 33.10 32.96 35.92 34.14 32.29 34.43 33.86 31.81 37.39 37.94 37.64 40.10 31.79 29.09 26.48 25.10 29.69 23.98 23.24 22.05 25.20 25.68 19.94 22.14 17.92 22.32 30.26 33.29 35.06 23.35 23.00 31.66
41.66 41.60 41.91 42.36 42.59 43.02 43.12 43.64 44.19 44.39 44.54 43.27 40.17 43.50 39.48 35.07 36.09 39.25 39.48 37.27 37.62 36.60 33.12 37.10 35.38 35.28 33.03 30.27 28.62 26.68 26.83 27.70 25.00 26.52 23.26 21.18 21.98 17.02 19.20 12.97 15.14 33.49 32.62 27.60 29.34 30.77 31.35
41.78 41.75 41.85 42.21 42.55 42.82 42.97 43.35 43.94 43.76 43.69 43.94 37.47 43.41 44.45 37.92 35.75 41.27 41.52 41.72 39.82 39.50 38.59 38.61 34.12 33.08 33.19 27.66 28.24 28.75 25.91 25.02 24.44 20.90 27.05 20.00 22.86 21.26 23.13 22.51 30.56 33.94 31.51 33.15 32.99 30.70 30.55

GFSGBSN_sfc_wetblb_162.txt.gz
Wetbulb
59.19 60.94 60.74 60.61 60.68 61.02 61.28 60.70 59.70 58.81 58.27 58.12 57.86 57.82 58.18 58.16 57.88 57.12 56.30 55.42 55.24 55.12 54.80 54.89 55.61 54.79 49.49 45.45 48.24 52.50 60.26 56.27 48.03 47.43 46.58 45.26 42.76 40.93 38.16 38.61 40.13 38.22 39.21 41.10 42.18 41.32 40.18
57.90 58.44 59.44 59.72 59.70 60.11 60.57 61.03 60.08 58.96 58.30 57.93 57.43 57.49 57.36 57.52 57.37 57.10 56.42 55.65 55.12 54.83 54.71 54.89 55.27 54.37 43.61 43.67 52.51 49.84 49.92 47.34 46.51 46.39 44.87 43.94 42.56 42.86 40.43 39.25 38.12 40.31 39.19 40.09 40.38 40.17 40.36
55.78 56.84 57.42 57.71 58.95 59.27 59.25 59.01 58.92 59.35 58.60 58.20 57.70 57.31 57.11 57.03 57.02 56.75 56.37 55.66 55.03 54.58 54.79 55.07 54.69 50.18 43.23 47.02 48.78 49.78 48.97 46.31 46.58 46.99 44.20 45.13 44.67 42.49 41.25 39.32 41.45 39.96 37.67 38.78 39.60 39.93 40.33
54.33 54.70 55.59 56.56 56.76 57.53 58.02 57.92 57.92 58.36 58.75 58.41 58.14 57.22 56.54 56.36 56.20 55.98 55.78 55.09 54.62 54.79 55.07 54.96 54.66 46.86 42.13 51.86 49.35 51.81 49.02 49.96 49.27 47.92 45.79 46.32 45.22 42.34 40.28 41.30 39.72 36.30 35.47 32.86 38.83 38.59 39.39
53.99 54.06 54.23 55.46 55.71 55.87 56.43 57.16 57.42 57.73 58.16 58.29 57.89 57.38 56.32 55.84 55.49 55.33 55.15 54.76 54.77 54.99 54.81 54.99 45.76 43.79 44.91 54.76 49.47 50.74 50.81 49.97 47.88 46.66 46.44 48.07 43.62 39.24 39.29 35.10 32.48 33.36 29.48 30.93 35.48 37.36 36.34
52.82 53.55 54.56 55.19 55.04 54.90 55.82 56.47 56.88 57.07 56.70 56.60 57.56 57.37 56.58 55.96 55.32 54.64 54.56 54.85 54.83 53.48 49.46 48.75 47.38 43.00 48.16 46.52 49.41 48.01 47.10 47.50 44.19 44.47 43.26 41.36 37.74 34.67 33.44 32.19 28.22 29.57 30.18 32.72 30.62 34.42 34.96
52.29 52.47 53.39 54.80 54.89 54.88 55.43 56.13 56.35 56.02 55.63 55.55 56.30 57.06 56.74 56.00 55.46 54.41 53.95 53.11 50.63 45.67 42.27 45.94 46.59 46.27 48.90 50.79 50.51 44.46 45.28 45.19 43.33 41.27 36.25 37.20 33.23 30.73 33.34 33.93 35.03 33.77 31.12 29.43 30.60 34.21 32.17
52.18 52.57 52.84 53.93 54.43 53.83 53.72 55.65 55.78 55.84 55.50 55.47 55.38 55.74 56.20 55.88 55.48 54.50 54.28 52.05 50.66 43.06 39.93 45.26 45.22 45.94 49.43 49.64 46.18 48.15 46.21 40.88 39.40 35.35 36.28 34.16 31.08 36.04 37.00 36.47 34.97 33.45 31.31 29.77 32.28 34.41 33.55
52.15 52.61 53.02 52.75 53.96 53.76 53.26 55.05 55.30 55.35 55.35 55.31 55.25 55.52 56.02 55.19 53.97 52.86 52.24 51.48 45.59 43.61 43.66 45.16 44.62 45.31 47.16 48.68 45.95 46.03 43.95 40.73 37.26 35.01 34.70 31.86 35.53 38.55 37.24 35.08 34.19 31.68 30.55 30.16 30.79 31.73 31.12
51.27 51.55 52.09 52.09 53.05 53.89 53.93 54.87 54.79 54.79 54.60 54.20 54.18 55.42 54.69 52.97 51.38 50.19 49.78 51.72 46.43 50.99 41.60 41.69 43.11 44.29 47.12 47.09 43.45 50.12 44.52 41.49 37.17 35.22 34.42 33.94 37.41 36.73 34.42 34.44 34.83 29.42 34.09 33.69 31.68 28.75 25.36
49.84 50.53 51.32 51.78 52.15 52.55 53.11 53.23 53.80 54.09 53.41 53.29 53.15 54.45 52.85 53.95 49.75 49.29 52.82 51.13 51.75 50.18 28.35 41.44 44.32 49.66 47.60 45.36 43.75 45.42 42.61 40.61 35.86 35.24 34.78 33.81 33.83 33.13 32.51 34.50 35.19 32.80 35.19 32.85 30.56 26.45 23.71
49.01 49.31 50.05 50.90 51.60 51.49 52.14 52.33 52.96 52.96 52.90 52.75 52.70 53.63 52.89 51.19 50.52 51.90 50.92 52.68 51.99 37.92 26.17 38.32 44.07 42.98 41.94 43.33 41.29 40.51 41.00 41.28 39.96 35.98 33.73 34.32 35.51 35.29 34.68 34.19 34.98 34.87 32.02 29.96 26.96 25.82 21.41
48.04 48.54 48.87 50.16 50.90 51.16 51.30 51.72 52.29 52.33 52.14 52.18 51.98 52.79 52.49 52.26 48.24 51.40 53.55 50.14 37.86 30.91 40.36 36.60 35.94 40.89 40.56 39.81 40.84 37.94 37.99 36.06 34.05 29.64 28.82 32.21 32.06 33.34 35.74 32.11 34.15 31.81 29.62 23.22 21.55 20.76 21.23
47.14 47.79 48.29 48.97 50.07 50.21 50.59 50.84 50.92 51.64 51.78 51.87 51.33 51.58 51.91 51.98 51.36 51.58 50.17 42.08 30.26 35.78 36.67 41.37 36.70 36.59 37.45 39.72 39.54 35.87 34.72 33.67 35.16 33.03 28.83 28.39 25.44 32.63 35.00 33.68 31.41 29.97 30.15 24.08 20.73 18.63 20.53
46.30 47.27 47.72 48.45 48.85 49.09 49.85 50.16 50.29 50.52 51.09 51.04 50.97 48.37 48.17 49.86 50.67 51.10 44.60 33.61 32.64 35.84 38.63 37.96 38.48 32.49 33.10 37.87 39.73 34.36 32.84 34.22 37.70 34.75 32.06 28.03 29.07 32.39 33.59 34.60 35.40 29.83 26.61 31.81 26.19 23.73 20.19
45.94 46.38 47.10 47.26 47.19 48.07 48.69 49.46 49.74 49.99 50.21 50.38 44.43 44.44 43.90 49.18 49.75 47.59 39.22 34.41 35.87 40.17 41.18 40.36 33.74 35.61 30.10 32.70 34.32 36.13 32.63 35.74 36.29 37.98 37.58 34.23 28.09 31.74 32.45 34.48 33.72 32.92 34.45 26.23 25.04 19.30 16.81
45.32 45.87 46.42 46.86 47.13 47.59 47.98 48.61 49.13 49.59 49.54 49.77 42.63 37.57 42.08 49.30 48.56 41.82 32.55 34.54 37.28 41.35 42.29 38.92 37.29 36.09 36.04 32.64 34.46 33.45 35.58 36.92 38.33 35.78 38.39 35.10 31.63 28.55 32.09 29.95 28.94 29.30 27.52 27.61 27.71 24.22 20.40
45.62 45.67 45.66 46.05 46.33 46.81 47.89 48.07 48.60 48.84 48.99 47.17 40.50 31.92 42.71 48.19 36.10 35.56 32.72 37.44 40.63 39.70 42.84 41.31 40.86 40.25 38.17 36.18 32.92 33.05 34.16 35.99 38.50 36.80 33.96 35.92 31.71 25.90 27.76 32.00 32.97 30.53 28.94 28.73 23.13 22.09 21.67
44.79 44.81 45.02 45.71 46.13 46.77 47.13 47.67 47.94 48.43 48.67 41.53 35.57 31.12 39.71 41.98 30.43 31.95 35.83 36.84 39.33 37.86 39.64 40.16 39.27 40.67 42.16 38.40 33.89 35.54 34.93 37.20 37.36 36.31 33.62 35.21 29.74 24.19 26.08 28.28 29.99 28.57 29.59 29.35 27.03 24.85 22.01
44.18 44.31 44.78 45.42 45.51 45.80 46.17 45.66 47.33 48.09 48.00 43.44 34.47 29.49 33.20 36.30 35.44 34.18 31.52 33.25 34.77 39.76 38.62 41.14 40.29 41.30 39.87 38.48 40.10 36.62 35.98 35.88 37.49 36.96 41.68 39.59 30.97 29.38 26.45 28.07 29.36 27.30 27.89 28.05 27.23 20.51 22.36
44.12 44.39 44.51 45.08 45.27 45.22 45.27 45.45 45.01 47.26 47.03 42.13 32.11 30.53 30.46 28.11 30.40 32.41 34.13 34.31 33.07 32.42 39.05 38.92 37.47 37.85 36.55 35.14 34.60 34.13 33.74 33.72 35.49 37.64 35.55 35.36 28.42 29.34 29.44 31.00 30.29 29.24 27.30 27.24 26.65 29.07 24.56
43.67 44.19 44.09 44.16 44.58 44.92 44.75 44.89 46.22 46.88 46.29 40.65 31.74 31.53 34.19 29.67 29.97 31.88 32.67 31.11 32.50 34.08 35.46 34.52 34.06 35.96 38.04 34.55 34.88 32.37 33.68 32.74 31.92 33.95 32.04 32.95 27.95 28.45 26.90 29.62 29.88 27.23 26.27 27.82 28.47 27.35 26.27
43.82 44.00 44.05 43.31 43.80 44.41 44.10 44.84 45.81 46.31 44.45 37.24 36.43 38.11 31.57 28.99 27.77 29.61 30.23 30.13 31.63 34.26 35.73 37.02 35.93 35.60 35.53 37.14 40.04 40.55 40.71 39.84 36.74 33.97 30.52 30.64 28.57 26.65 25.43 28.06 27.60 24.39 25.80 27.00 27.19 27.75 28.48
43.19 43.50 43.50 43.66 43.88 43.76 43.28 44.70 45.45 45.74 44.68 38.35 35.46 38.28 32.15 24.35 29.10 29.57 30.95 32.05 31.28 32.23 31.83 35.59 36.87 34.44 37.10 40.82 39.60 39.43 40.16 39.21 40.20 38.98 34.58 29.68 28.98 27.50 25.15 25.84 19.02 27.46 31.18 30.55 28.72 29.09 29.23
42.80 43.23 43.23 43.36 43.53 43.63 44.07 44.53 44.72 45.24 45.37 41.16 41.14 35.36 33.02 21.31 28.50 29.86 31.49 31.10 32.71 35.30 33.80 34.06 36.40 39.14 39.16 36.29 30.77 29.05 29.60 30.30 32.01 35.40 33.05 33.81 30.01 27.05 23.38 23.31 26.27 28.18 29.46 28.30 27.79 27.02 30.82
42.55 42.70 42.60 42.70 43.08 43.76 44.00 43.88 44.39 44.51 44.81 41.04 40.79 40.56 34.80 30.05 24.49 33.91 31.34 32.88 31.20 29.77 29.93 33.49 38.67 41.06 39.53 34.07 30.82 25.77 23.26 26.86 25.31 27.59 33.38 32.91 31.62 27.52 25.21 21.09 17.59 25.62 30.63 34.07 32.26 21.98 30.83
42.35 42.30 42.23 42.10 42.55 43.13 43.46 43.56 43.85 44.21 44.38 41.05 40.58 41.89 37.28 30.59 33.56 34.82 29.24 32.07 34.71 33.77 30.15 32.89 34.96 37.66 39.36 31.71 28.79 26.60 25.24 29.57 23.35 23.10 22.75 25.69 25.92 24.29 25.08 21.37 24.36 29.64 32.43 34.31 23.60 22.99 30.32
42.32 42.33 42.23 42.24 42.66 42.60 43.07 43.37 43.87 44.17 44.34 41.68 39.50 42.51 37.97 33.31 31.82 36.59 37.88 35.04 34.04 34.50 30.20 32.44 35.17 34.99 32.60 30.34 29.71 28.46 27.76 26.72 27.01 28.70 26.69 23.85 22.14 21.19 23.75 21.89 18.74 32.89 32.33 28.05 29.13 30.13 30.29
42.08 42.25 42.12 42.08 42.19 42.49 42.65 42.67 43.30 43.51 43.95 42.74 36.85 42.56 41.67 36.65 34.99 39.69 39.71 41.18 40.62 39.15 34.81 35.94 34.16 34.24 34.93 32.55 29.13 29.05 26.66 27.82 27.30 22.91 28.21 25.06 26.23 23.74 25.51 25.03 31.37 33.70 31.31 32.18 32.06 30.41 29.51

GFSGBSN_sfc_wetblb_165.txt.gz
Wetbulb
58.07 58.55 59.31 60.70 60.49 60.84 61.25 60.92 60.00 59.11 58.59 58.14 58.02 58.01 58.22 58.39 58.21 57.32 56.59 55.96 55.90 55.88 55.71 55.77 56.61 55.52 51.39 50.59 51.31 53.33 58.80 55.29 50.37 50.66 49.03 47.67 46.48 45.94 44.04 44.26 44.96 43.97 44.32 45.36 45.99 45.56 46.22
56.46 57.07 57.15 57.83 59.62 59.87 60.34 60.26 60.23 59.30 58.64 58.27 57.91 57.69 57.68 57.68 57.65 57.27 56.64 56.03 55.60 55.46 55.42 55.70 56.19 54.70 47.56 47.78 54.81 52.81 50.73 49.39 50.19 49.91 48.07 48.01 46.45 46.83 44.88 43.97 43.95 44.22 43.95 44.46 45.39 46.03 45.57
54.32 54.88 56.28 56.97 57.01 57.93 59.12 58.60 58.45 58.53 58.85 58.50 58.00 57.56 57.33 57.45 57.16 56.98 56.70 55.90 55.31 55.07 55.46 55.64 55.67 50.33 45.22 50.37 52.05 52.19 53.03 49.11 50.21 49.81 47.51 48.46 48.24 47.06 45.87 43.62 44.80 43.69 41.97 43.09 44.10 44.81 45.08
53.74 53.87 53.95 55.42 55.69 55.89 56.39 57.05 57.80 58.17 58.05 58.24 58.44 57.80 56.96 56.84 56.60 56.32 56.26 55.76 55.05 55.38 55.70 55.51 55.20 48.62 45.86 54.72 52.94 53.99 53.41 52.15 51.66 51.32 49.11 49.55 49.00 46.78 45.53 45.24 43.35 41.78 41.10 40.14 42.81 43.33 43.73
53.76 53.41 53.93 54.63 54.84 54.61 54.81 55.80 56.60 57.32 57.83 57.52 57.66 57.64 56.96 56.12 55.82 55.55 55.41 55.35 55.49 56.10 55.50 55.38 48.11 47.20 47.00 56.50 51.23 53.25 53.65 52.02 51.56 49.94 49.62 48.39 47.60 43.75 43.97 41.36 40.11 39.30 38.70 37.45 40.09 42.07 41.79
52.90 52.49 53.40 54.38 54.92 54.63 54.24 54.73 55.52 55.79 56.53 56.24 56.00 56.46 56.80 56.10 55.44 54.80 54.76 55.34 55.90 54.62 50.55 49.40 48.09 46.55 50.03 49.47 51.57 50.31 51.32 50.60 46.48 47.45 46.33 45.19 42.84 41.00 39.88 39.78 36.69 37.08 36.40 37.41 38.08 39.93 40.68
52.42 52.56 53.06 53.63 54.13 54.71 54.31 54.37 55.05 55.17 55.58 55.47 55.30 55.56 56.20 56.00 55.56 55.17 55.41 54.37 51.43 48.95 45.81 49.72 47.99 47.15 49.85 52.84 53.06 47.66 48.34 47.83 46.71 45.06 41.31 41.43 39.37 37.33 39.71 39.44 39.55 38.78 36.95 35.86 37.90 39.01 38.46
52.12 52.30 52.12 52.44 53.15 53.75 53.68 53.89 54.22 54.50 55.49 55.56 55.25 55.18 55.41 55.92 55.70 54.95 55.58 52.90 51.64 48.39 46.62 47.25 46.71 46.90 49.92 51.72 48.35 50.27 48.74 44.91 43.19 40.14 40.43 39.27 36.48 40.38 39.34 38.96 38.50 38.22 37.10 36.50 37.73 38.06 38.48
51.04 51.65 51.90 51.81 52.37 52.51 52.76 54.00 54.13 54.34 55.15 55.39 55.11 55.05 55.06 55.54 54.59 53.69 53.61 53.52 47.14 46.40 45.29 47.15 47.49 48.07 49.54 49.99 47.86 49.29 46.30 43.61 41.12 38.32 38.28 37.36 39.31 39.41 39.34 37.95 37.17 37.07 36.35 35.52 36.37 36.69 36.82
50.10 51.30 51.54 51.04 51.48 51.99 52.78 53.79 54.01 54.21 54.68 54.49 54.87 55.33 54.43 53.24 51.99 51.51 51.09 53.96 48.26 52.48 42.32 43.00 44.70 46.34 47.20 48.79 45.06 51.91 47.87 44.58 40.03 38.88 37.93 38.28 40.56 38.62 37.84 37.20 38.50 34.82 37.86 36.92 35.71 35.37 33.44
48.97 49.73 50.30 50.21 50.98 51.91 52.14 52.82 53.23 53.60 54.15 53.95 53.52 54.52 53.17 54.28 50.76 50.38 52.49 51.14 53.92 52.41 27.26 42.73 44.11 51.32 47.68 47.20 46.47 46.42 45.48 43.74 38.87 37.79 38.83 38.40 36.69 36.15 36.33 37.45 38.98 37.36 37.92 36.61 35.01 33.56 32.53
47.94 48.56 49.41 49.62 50.48 50.86 51.63 51.94 52.44 52.64 53.09 53.00 52.88 53.74 53.02 51.67 50.97 53.13 53.44 53.73 53.10 38.31 27.71 39.04 45.04 43.36 42.62 44.56 43.80 42.87 43.69 44.27 42.83 38.31 37.55 38.81 39.53 38.69 38.76 36.85 38.99 36.66 35.53 34.07 32.91 32.50 29.02
47.04 47.28 48.10 48.78 49.50 50.17 50.98 51.53 51.88 52.08 52.54 52.32 52.16 52.69 52.85 53.14 49.03 51.90 53.45 49.45 37.05 30.79 41.48 37.55 38.74 42.95 42.11 41.58 42.81 40.58 40.66 38.61 37.30 33.60 32.67 35.09 36.14 37.89 38.21 35.34 36.48 35.85 35.12 29.61 27.64 27.16 28.18
45.86 46.45 47.15 47.94 48.40 49.50 50.53 50.69 50.75 51.08 51.34 51.69 51.42 51.56 52.23 52.55 52.18 52.83 50.46 42.15 29.78 35.39 38.19 41.49 38.45 40.07 39.34 41.42 41.89 38.03 38.11 37.36 40.00 37.27 33.68 32.75 31.01 35.77 37.81 37.52 34.47 33.75 35.85 30.50 23.96 24.76 28.49
45.95 46.00 46.38 47.23 47.99 48.58 49.46 49.99 50.17 50.46 50.45 50.77 50.61 49.64 48.86 50.38 51.72 51.35 44.34 32.76 32.51 35.95 40.07 39.66 39.82 35.70 35.39 39.53 41.46 36.25 36.42 36.77 40.14 37.91 36.36 32.13 32.85 35.66 35.97 37.16 37.98 32.95 30.77 36.60 28.94 27.78 26.94
45.02 45.68 46.12 46.67 47.29 47.54 48.10 49.22 49.52 49.90 50.15 49.93 45.75 45.79 45.29 49.63 50.42 47.41 38.10 34.00 35.64 40.74 41.54 40.76 35.36 37.64 32.40 35.00 37.34 37.09 34.47 37.88 38.76 40.20 41.17 37.20 31.06 34.00 34.73 37.24 36.59 36.06 37.24 30.05 30.25 23.78 22.84
44.90 44.69 45.54 46.12 47.05 47.50 47.40 47.91 48.94 49.12 49.73 49.35 44.68 39.17 43.49 49.99 48.76 40.49 31.52 32.90 37.51 41.33 42.08 38.16 36.74 36.25 36.46 34.68 36.61 35.80 38.54 39.67 39.61 39.40 41.13 37.56 34.56 30.98 34.17 32.80 32.41 32.22 31.39 31.17 32.58 29.98 26.34
45.12 45.02 45.03 45.25 45.49 46.54 46.86 46.95 48.52 48.66 49.02 46.54 41.51 32.32 43.56 49.24 35.08 35.60 32.11 37.16 39.55 39.38 41.90 39.74 41.33 39.94 38.46 37.88 35.31 35.51 36.21 40.19 40.51 39.14 35.78 38.48 33.79 27.71 30.70 34.81 35.90 34.96 33.44 34.19 29.83 25.46 27.07
44.75 44.66 44.52 44.92 45.04 45.72 46.72 46.54 47.09 48.17 48.34 43.18 35.07 32.53 41.53 44.69 29.22 30.25 34.43 36.17 38.98 38.37 39.17 39.26 38.15 40.84 42.12 39.10 35.21 36.67 37.12 38.98 38.96 38.42 36.55 37.23 31.62 27.25 30.04 32.33 33.12 31.71 32.53 33.32 32.13 30.66 27.42
44.65 44.43 44.21 44.57 44.91 45.23 46.15 46.60 46.88 47.81 48.15 43.93 34.30 29.93 32.89 36.88 36.84 32.67 30.68 32.13 34.15 40.20 38.67 39.79 40.19 41.69 39.84 37.70 40.46 37.79 37.73 37.04 38.34 38.42 42.40 40.90 33.02 31.79 28.98 31.80 33.05 28.95 30.20 32.21 32.61 26.85 30.16
44.50 44.26 44.42 44.49 44.88 45.25 45.69 45.74 46.43 46.80 47.30 41.58 32.35 30.99 34.18 28.53 30.68 33.18 34.17 32.96 31.51 32.45 38.84 40.08 37.65 38.30 37.39 34.69 36.19 36.56 37.51 35.68 36.61 37.41 36.60 36.66 30.24 32.60 34.34 34.65 33.07 31.44 31.89 30.85 30.36 32.55 28.79
43.96 43.80 43.82 44.09 44.72 44.96 45.15 45.30 45.56 46.00 45.99 40.92 31.22 31.73 32.83 30.70 32.51 31.72 32.55 32.34 31.10 32.97 35.16 34.98 35.47 37.57 38.77 34.94 35.60 32.44 34.05 34.11 32.73 35.99 31.96 34.55 30.18 30.27 28.45 32.98 31.42 29.33 31.08 31.73 31.87 32.71 31.95
43.55 43.35 44.11 43.92 44.23 44.54 44.74 44.36 45.22 45.36 44.47 36.09 34.69 38.10 35.45 32.46 30.31 29.50 29.74 31.11 31.00 34.60 36.81 37.85 37.62 36.51 35.52 38.27 41.00 41.62 41.15 40.23 38.33 35.68 33.08 32.34 30.89 28.78 25.91 30.40 28.98 25.67 31.75 29.83 31.17 33.44 33.16
43.40 43.72 43.78 44.01 43.97 43.87 44.17 43.92 43.53 43.55 43.85 37.89 36.57 37.48 32.43 27.48 30.01 29.85 31.35 32.42 31.69 32.80 32.90 36.31 38.27 35.83 38.40 42.96 42.12 41.36 39.41 38.95 39.64 37.49 37.69 30.87 31.17 30.96 26.95 27.06 20.41 32.43 34.62 34.99 32.88 33.49 33.35
43.31 43.59 43.55 43.67 43.70 43.79 43.69 43.48 43.21 43.81 44.10 40.42 40.19 36.27 33.62 27.43 30.57 30.34 30.92 31.74 32.93 34.33 33.84 34.33 36.94 39.96 41.43 38.83 33.95 31.25 30.98 31.64 34.11 37.25 37.78 37.03 32.48 28.92 25.25 24.55 29.10 31.91 31.58 31.15 30.11 31.69 34.13
43.00 43.26 43.43 43.26 43.08 43.39 43.53 43.38 42.44 43.34 44.12 41.69 41.11 40.61 35.49 30.18 29.19 33.18 31.53 33.30 31.18 31.67 32.49 34.72 39.41 41.62 40.28 34.86 31.85 25.42 24.14 28.15 27.50 29.36 35.45 34.56 33.93 31.01 27.02 23.65 21.43 30.91 33.02 36.02 36.01 27.86 35.22
42.75 43.00 42.97 42.77 42.68 42.97 43.16 43.44 43.95 43.92 44.17 41.78 40.40 42.64 37.59 30.81 33.94 34.03 31.24 31.34 35.48 34.02 31.81 33.03 35.60 36.71 39.64 32.51 28.62 26.09 26.20 31.12 26.25 24.72 24.54 27.40 27.93 28.04 26.77 25.10 27.99 33.75 34.96 36.70 26.50 30.75 33.43
42.64 42.77 42.66 42.50 42.29 42.23 42.88 43.11 43.43 43.93 44.12 40.82 39.65 42.11 38.14 33.74 33.69 36.79 37.61 35.69 34.58 34.85 30.65 34.52 34.71 35.71 34.20 29.43 29.47 29.92 29.18 30.05 28.54 29.74 26.56 26.36 25.04 25.24 27.00 24.81 22.78 35.50 33.92 30.93 35.12 32.86 33.69
42.29 42.53 42.91 42.59 42.39 42.30 42.30 42.58 43.03 43.74 43.94 42.51 36.92 42.23 42.77 36.38 33.71 39.90 39.89 40.22 39.61 39.14 35.35 35.94 33.03 34.60 35.84 32.28 32.57 31.78 29.74 30.11 28.52 25.09 30.43 26.94 31.14 27.76 28.94 29.34 33.61 35.47 35.15 35.43 36.00 34.48 33.29

GFSGBSN_sfc_wetblb_168.txt.gz
Wetbulb
57.21 57.72 58.06 58.69 60.38 60.42 61.26 61.05 60.36 59.35 58.86 58.54 58.43 58.52 58.62 58.80 58.70 58.03 57.20 56.61 56.39 56.48 56.34 56.49 57.17 56.86 57.64 56.60 56.87 57.32 58.72 58.67 53.07 53.58 51.74 51.41 51.08 50.98 50.27 49.93 49.61 49.08 49.50 49.95 50.14 49.66 50.62
55.76 55.98 56.80 56.96 57.27 58.73 60.05 59.70 59.08 59.21 58.82 58.60 58.17 58.03 58.00 58.27 58.12 57.83 57.17 56.56 56.11 55.91 56.22 56.46 56.94 55.71 56.56 52.89 58.84 57.78 57.77 53.58 53.63 53.12 51.63 51.63 50.27 50.99 49.64 48.99 48.75 48.81 48.61 49.42 50.14 50.57 49.93
54.20 54.14 54.84 55.44 55.74 55.94 57.04 57.64 58.04 58.36 58.14 58.48 58.45 57.80 57.84 58.14 57.82 57.58 57.22 56.61 56.19 55.87 56.11 56.55 56.34 55.49 54.62 55.66 59.28 58.47 57.80 54.89 53.35 52.88 50.93 51.68 51.61 50.31 50.36 48.51 48.92 48.02 46.55 48.81 49.26 50.30 49.33
53.28 53.57 53.91 54.94 54.83 54.80 55.25 55.82 56.86 57.48 57.94 57.74 57.93 57.78 57.32 57.10 57.12 57.06 56.73 56.31 55.88 56.11 56.53 56.39 56.19 54.82 53.62 59.74 60.43 58.99 60.00 58.31 53.93 54.09 52.71 52.25 51.93 50.47 49.37 49.51 47.90 46.82 46.74 46.44 48.72 49.08 48.99
52.99 52.91 52.97 53.83 54.66 54.45 54.17 54.44 55.46 56.43 57.06 57.11 56.90 56.54 56.62 56.38 55.94 55.86 55.64 55.73 55.84 56.64 56.73 55.99 54.53 53.80 53.18 59.62 56.61 56.49 57.00 55.31 53.51 54.84 52.66 51.03 50.83 48.95 48.44 47.11 46.70 47.39 45.73 45.74 45.81 47.26 47.03
52.28 52.24 52.23 52.75 54.01 54.49 54.51 54.39 54.63 55.24 55.58 56.21 55.84 55.53 55.66 55.82 55.57 54.97 54.69 55.82 56.79 56.41 55.04 53.73 52.92 51.67 56.13 54.49 54.10 53.87 56.03 55.09 52.36 51.05 48.83 48.79 48.34 46.46 47.10 46.33 43.14 45.99 44.71 45.89 45.83 44.98 45.19
52.76 52.59 52.55 52.24 52.48 53.04 53.88 54.28 54.02 54.18 55.01 55.40 55.49 55.30 55.20 54.99 55.66 55.13 55.42 56.36 54.32 55.11 53.33 55.07 54.13 52.80 53.68 56.52 57.32 54.06 53.72 52.21 50.54 48.93 45.87 46.82 44.60 43.44 47.37 48.41 48.43 45.87 45.30 44.91 46.04 44.27 43.41
51.38 51.83 51.64 51.68 51.96 52.38 52.72 53.46 54.16 53.74 54.30 55.55 55.78 55.47 54.94 55.27 55.72 55.18 56.48 53.85 53.02 50.19 49.79 56.21 54.16 54.09 55.37 56.32 52.29 54.93 52.21 49.46 48.19 45.45 46.75 44.01 42.77 47.84 47.11 44.92 44.13 44.56 44.05 44.51 44.00 42.77 42.57
50.27 50.79 51.26 51.55 51.48 51.92 52.36 52.79 54.01 53.58 53.97 55.03 55.39 55.35 55.01 55.56 54.82 55.20 54.79 55.23 52.78 51.98 48.34 51.33 54.90 54.33 55.51 54.24 52.53 53.93 52.39 50.73 47.78 46.17 44.95 44.12 45.33 44.51 44.47 43.00 41.82 43.17 42.88 43.69 42.65 42.10 42.14
49.42 49.79 50.59 50.85 50.98 51.26 51.73 52.17 53.54 53.74 53.58 54.60 55.03 54.97 54.55 53.74 53.17 55.53 54.03 56.58 51.83 55.79 44.84 45.53 48.49 51.87 53.57 53.47 49.20 56.03 57.27 51.77 47.59 45.68 46.48 44.82 47.72 42.91 42.95 42.81 43.57 41.17 44.44 43.30 42.37 40.50 39.34
49.44 49.03 49.49 50.24 50.11 51.13 51.85 52.14 52.53 53.17 53.08 53.87 53.95 54.16 53.51 53.66 55.20 52.28 55.53 56.60 56.34 57.10 29.60 45.37 47.62 54.21 52.50 49.93 49.97 49.95 56.94 52.54 46.45 44.51 44.42 43.63 42.96 42.18 42.08 43.17 44.27 42.28 42.18 42.37 41.58 40.62 39.85
47.86 47.77 48.18 49.21 49.63 50.42 50.79 51.36 52.09 52.41 52.33 52.95 53.00 53.32 53.03 55.05 56.28 56.11 56.74 56.02 55.89 40.18 29.33 41.44 48.01 46.16 46.24 48.86 48.59 48.24 49.47 51.63 50.07 46.99 44.48 45.78 44.50 44.67 45.04 45.28 44.23 42.66 40.82 39.74 39.71 39.66 34.65
47.66 46.73 47.24 47.79 49.11 49.49 49.12 50.62 51.20 51.92 51.98 52.17 52.20 52.52 53.60 55.71 50.45 56.85 56.13 51.11 37.71 31.61 42.16 40.18 43.39 46.14 46.10 45.41 46.49 45.51 45.58 44.38 42.82 38.44 39.25 42.51 42.01 42.25 42.63 40.30 42.56 42.28 39.73 35.62 33.39 33.29 33.87
47.16 46.31 46.30 47.09 47.76 48.71 49.08 50.51 50.90 51.07 51.17 51.23 51.28 51.50 52.85 54.64 56.23 55.88 53.09 42.32 29.81 36.31 38.13 44.70 42.74 44.73 43.06 45.77 45.43 43.73 44.20 42.52 45.52 44.36 42.49 39.01 36.60 41.85 42.42 42.60 40.14 40.36 40.75 37.49 30.62 33.36 36.35
45.94 46.24 46.52 46.40 46.98 47.89 48.44 49.12 50.08 50.30 50.52 50.34 50.38 51.41 50.91 53.08 54.27 54.30 45.44 32.29 33.71 37.19 41.79 41.55 42.90 39.10 41.63 44.04 44.44 43.93 42.51 43.12 45.35 44.36 39.48 39.25 39.58 41.97 41.45 43.47 42.86 39.22 36.51 42.76 36.92 33.87 32.52
45.54 45.74 45.90 46.19 46.91 47.24 47.78 47.69 48.27 49.53 50.02 49.87 48.34 46.81 46.82 53.01 54.03 49.02 38.94 33.46 37.24 41.42 42.67 43.08 37.41 41.13 38.13 40.77 41.05 42.50 42.58 44.51 43.31 46.64 46.20 42.51 37.20 39.10 40.03 40.77 41.52 40.83 43.00 34.20 36.12 28.73 28.30
45.71 45.58 45.13 45.69 46.58 47.01 46.99 47.69 47.75 48.86 49.31 49.25 46.15 39.67 47.93 52.71 51.45 41.32 31.37 33.31 38.74 43.71 43.27 38.71 39.08 38.28 40.07 40.16 40.55 40.55 41.76 43.47 44.46 44.42 46.27 43.74 39.14 35.31 36.96 36.93 38.97 37.17 36.85 37.41 38.73 37.41 31.98
46.05 46.10 46.10 45.78 45.29 45.96 46.06 46.71 47.59 47.70 48.61 48.00 43.27 32.81 45.75 51.86 36.51 37.07 33.34 36.53 39.89 40.53 43.45 41.77 41.38 40.26 40.23 41.07 39.32 38.13 38.61 43.20 44.45 43.99 40.34 43.05 38.34 34.64 36.52 38.84 38.82 39.98 38.73 38.70 33.57 31.26 32.01
45.58 45.65 45.23 45.05 44.82 45.82 46.25 46.01 46.98 47.59 48.25 46.45 37.89 36.60 46.99 42.69 31.35 32.08 36.06 36.22 37.83 37.98 38.53 39.71 38.78 41.32 42.17 39.23 35.77 39.72 41.50 44.28 43.51 42.45 41.05 41.46 36.10 31.81 34.32 38.01 37.98 34.03 37.01 38.28 38.89 35.30 32.35
44.95 45.29 45.01 44.60 44.91 44.88 45.45 46.38 46.92 47.37 47.40 46.05 36.23 31.62 35.85 39.96 33.99 36.02 34.11 33.72 33.18 39.28 39.05 40.24 39.51 42.00 39.79 37.69 41.20 38.41 40.16 41.74 40.42 40.28 40.94 42.17 38.17 36.17 32.80 36.18 38.34 33.43 34.90 35.52 35.71 30.88 32.90
44.76 45.02 45.06 45.15 44.55 44.72 45.22 46.11 46.70 47.17 47.26 45.01 34.26 33.22 38.53 32.03 33.84 33.90 36.99 35.13 33.07 32.61 39.15 40.52 37.99 39.11 38.39 35.20 37.13 37.11 40.59 41.32 40.69 39.04 39.17 38.86 32.03 35.75 37.79 39.04 39.05 35.80 35.51 35.33 33.06 35.48 31.05
44.55 44.59 44.94 45.03 44.91 44.63 45.16 46.13 46.36 46.72 46.61 42.13 32.63 33.76 36.30 36.03 36.98 34.07 34.44 33.85 33.51 35.12 35.91 35.73 34.56 38.95 39.44 36.26 37.95 36.12 38.55 36.45 35.71 37.86 35.71 36.86 32.89 34.20 32.42 37.15 36.93 34.06 36.55 38.20 38.47 37.00 36.72
44.52 44.25 44.67 44.85 44.71 44.37 44.71 45.49 45.75 45.79 45.63 40.27 39.08 37.24 38.79 34.61 33.80 32.45 32.60 33.77 34.51 37.15 37.97 38.77 37.88 37.72 37.06 39.93 42.75 43.58 43.79 42.62 39.97 37.09 35.66 34.69 34.43 31.93 28.66 35.52 34.42 29.24 34.57 36.71 38.49 40.59 38.21
44.52 43.28 43.79 44.04 44.42 44.78 45.04 45.22 45.34 45.25 45.49 41.32 39.05 39.51 33.61 30.79 33.09 31.86 33.41 34.99 34.07 35.43 35.07 38.11 39.01 36.23 41.37 45.63 45.08 43.89 42.70 41.63 41.12 38.49 39.40 35.31 34.43 33.88 29.94 31.58 22.40 35.38 41.33 40.03 37.99 38.08 38.57
44.24 43.26 43.63 44.12 44.34 44.41 44.49 44.44 44.58 44.51 43.94 39.04 39.70 36.38 34.26 30.97 33.35 33.06 33.77 33.47 35.07 36.83 36.05 35.83 37.46 41.53 42.67 40.62 35.60 33.09 33.62 34.33 35.59 38.65 37.91 37.37 34.83 31.86 28.20 27.31 32.40 35.72 37.96 35.91 35.55 36.64 41.82
43.71 43.14 43.46 43.78 44.18 44.02 44.17 44.20 44.10 44.12 43.61 41.22 39.31 41.11 35.12 31.73 31.33 35.24 33.61 33.98 31.58 33.24 35.15 36.89 41.33 43.44 42.19 36.11 33.95 26.76 25.29 29.66 29.38 31.50 38.09 37.65 37.11 32.05 30.77 25.70 23.43 36.33 40.41 41.24 39.68 31.00 41.74
43.53 42.96 43.44 43.52 43.81 43.77 43.60 43.81 43.94 43.45 43.18 41.54 40.00 42.39 37.40 32.06 36.17 36.15 33.05 32.89 37.01 35.97 34.34 36.60 37.82 38.52 40.50 32.89 30.10 27.83 27.32 33.23 27.34 28.34 27.44 30.03 30.26 28.07 28.98 28.31 32.30 40.87 38.88 41.03 29.99 34.63 41.84
42.71 42.94 43.14 43.37 43.54 43.65 43.21 43.44 43.60 43.72 42.49 42.09 40.87 43.83 39.18 34.77 35.56 38.07 38.58 36.05 36.16 37.51 33.62 36.00 36.00 37.41 35.64 30.07 30.09 30.57 29.64 32.31 31.49 34.13 31.69 30.14 27.78 27.58 29.61 28.71 26.55 42.33 38.78 33.86 39.94 39.90 41.16
42.97 42.86 42.72 43.04 43.34 43.09 42.57 42.92 43.29 43.49 43.24 43.76 39.59 44.59 44.88 37.46 36.64 42.16 42.02 43.09 42.02 41.31 39.21 38.13 35.25 33.24 36.33 34.30 34.68 34.61 31.72 33.57 32.83 27.98 37.70 31.01 36.09 34.66 34.45 35.06 38.57 42.15 40.41 41.11 42.07 41.00 40.42

GFSGBSN_sfc_wetblb_171.txt.gz
Wetbulb
56.76 57.27 57.29 57.85 58.72 60.09 61.17 61.06 60.49 59.49 59.19 59.07 59.07 59.02 59.25 59.45 59.52 58.81 57.91 57.29 57.27 57.10 57.10 57.23 57.77 57.56 59.53 58.68 58.88 60.78 60.90 60.35 55.69 56.04 55.71 55.34 54.62 54.79 52.47 53.41 53.13 51.76 52.76 53.23 53.18 52.64 53.43
54.61 55.02 55.93 56.21 56.33 57.46 58.33 58.91 58.85 58.37 58.53 58.53 58.51 58.64 58.76 58.83 58.85 58.57 58.09 57.32 56.93 56.73 56.86 57.40 57.77 56.23 60.24 54.37 62.70 62.21 61.03 60.61 56.92 56.56 55.75 55.59 54.50 54.71 52.79 52.56 52.01 53.02 52.58 52.54 53.37 53.04 52.89
54.30 54.51 53.98 54.48 55.02 55.28 55.81 56.29 57.25 57.77 57.85 57.90 57.80 57.95 58.21 58.49 58.56 58.23 58.12 57.54 56.97 56.67 57.03 57.29 57.54 59.31 57.72 57.35 64.25 63.18 61.92 60.48 58.44 56.30 54.94 54.98 54.86 53.23 54.74 52.43 54.34 52.48 49.69 51.82 52.20 52.83 51.85
53.13 53.49 54.01 54.40 53.76 53.74 54.27 54.88 56.09 56.93 57.35 57.63 57.71 57.45 57.11 57.17 57.17 57.09 57.33 56.90 56.50 56.74 57.15 57.56 57.23 58.79 55.18 63.72 64.17 61.75 62.11 61.16 61.56 58.11 55.94 55.30 54.99 53.50 52.91 54.82 51.68 49.95 50.68 47.61 52.37 52.19 52.38
52.38 52.85 52.85 53.70 53.94 53.69 53.83 53.71 54.40 55.58 56.35 56.74 56.53 56.17 55.67 55.63 55.85 55.79 55.64 55.75 56.29 57.08 57.59 57.52 58.37 57.20 54.67 59.97 58.84 59.48 58.27 56.27 58.00 56.46 56.46 53.60 53.29 52.16 52.94 48.90 49.04 50.47 46.17 48.30 49.39 52.56 51.66
52.36 52.97 52.25 52.69 52.83 53.71 53.52 53.29 54.22 54.57 55.36 55.75 55.93 55.80 55.25 55.18 55.13 55.04 54.50 55.61 57.65 57.58 59.51 59.69 58.86 53.33 57.76 56.50 57.37 56.92 58.04 56.90 55.04 54.57 52.62 51.13 50.89 49.18 49.88 48.86 43.54 46.79 47.45 48.76 49.48 49.44 49.99
52.17 52.76 52.66 52.37 52.33 52.34 53.17 53.42 53.47 53.60 54.11 55.41 55.97 55.64 55.56 54.90 55.33 55.49 57.33 58.77 55.71 56.13 59.00 55.52 55.20 55.72 56.44 58.08 58.17 57.69 57.50 55.75 54.36 52.71 48.91 51.06 46.82 45.42 48.54 50.22 50.31 49.79 48.41 48.47 51.17 50.86 47.88
51.59 51.86 52.05 51.78 51.86 52.22 52.33 52.64 53.72 53.86 53.82 54.56 55.67 55.91 55.72 55.07 55.57 55.69 59.22 56.38 56.77 52.55 50.99 57.53 57.42 57.30 59.33 60.23 54.31 57.80 58.07 52.23 52.07 47.83 51.67 48.90 44.81 49.55 51.03 50.61 48.82 48.50 46.97 47.38 50.64 49.21 45.56
50.14 50.55 50.74 51.26 51.50 51.54 52.17 52.63 53.23 53.82 53.51 53.86 55.24 55.93 55.81 55.91 55.41 56.73 57.91 57.46 60.27 58.13 51.02 51.34 54.74 54.91 56.06 57.65 53.93 54.79 57.70 54.44 51.11 49.10 48.92 47.69 48.86 48.54 48.33 47.64 45.34 46.79 46.24 47.16 47.34 48.29 46.19
49.76 49.69 50.12 50.63 50.80 50.87 51.20 51.60 51.98 52.91 53.43 53.32 54.78 55.28 54.96 54.17 53.01 58.17 55.26 59.80 59.60 59.27 43.53 44.24 48.95 53.60 55.63 55.90 52.07 57.86 58.25 55.36 52.37 47.63 48.30 48.44 51.85 48.75 46.57 45.38 46.76 43.35 48.46 47.30 46.62 45.12 41.20
49.03 48.90 49.17 49.54 50.52 50.33 50.72 50.63 51.25 51.71 52.52 52.79 53.31 54.06 53.99 53.41 56.59 53.93 57.21 60.87 60.12 58.72 29.60 45.02 48.08 56.19 54.47 51.85 51.68 52.53 57.14 53.97 49.95 49.04 47.53 46.57 47.26 46.60 45.50 46.33 48.12 44.89 46.58 45.50 45.78 44.52 44.27
48.31 48.05 48.09 48.38 49.32 49.56 49.92 50.44 51.11 51.85 52.09 52.09 52.67 53.22 53.47 55.15 55.83 56.88 59.91 59.23 57.56 39.82 29.67 42.48 49.35 47.81 47.82 50.34 50.88 51.87 52.20 55.15 54.55 49.97 49.07 47.38 50.94 48.39 48.34 49.01 48.39 47.42 44.46 44.18 44.36 43.45 37.74
47.48 47.33 47.08 47.48 48.05 48.64 49.10 49.21 50.79 51.33 51.88 51.78 51.75 52.37 53.26 55.80 50.14 57.12 58.16 54.42 37.05 31.64 42.24 40.44 43.86 47.48 47.11 46.99 47.91 49.38 47.71 47.94 45.62 41.69 42.32 46.12 45.87 48.26 47.38 44.95 47.41 45.19 42.66 37.53 35.99 36.41 35.44
46.94 47.32 46.86 46.68 47.21 47.77 48.47 48.80 50.16 50.93 51.21 51.26 51.03 51.49 53.02 54.73 56.30 56.72 54.11 43.31 29.25 35.93 38.31 45.17 45.21 45.71 43.58 46.46 46.97 47.85 45.53 44.97 47.90 46.19 43.72 41.39 39.14 45.56 46.92 44.98 43.78 43.78 43.04 38.68 33.07 35.25 38.79
46.79 46.59 46.92 46.64 46.48 46.93 47.87 48.53 49.03 49.48 50.15 50.35 50.19 50.41 51.39 53.89 56.00 54.86 45.72 32.53 33.48 36.18 40.35 40.04 41.57 41.16 41.81 44.66 46.49 46.83 45.85 44.27 47.39 47.31 41.39 40.72 41.83 47.81 47.42 46.09 46.62 44.40 40.25 45.56 39.65 40.91 36.65
46.70 46.36 46.07 45.96 46.15 46.56 47.23 47.90 47.82 48.14 49.16 49.82 48.56 47.64 47.42 54.15 55.36 49.89 38.27 33.57 37.26 42.23 42.57 42.12 36.18 41.42 37.97 40.84 41.86 43.88 44.99 47.07 45.94 49.05 49.04 43.70 38.82 44.30 45.18 44.76 46.24 44.98 46.21 38.24 39.37 30.59 30.52
46.64 46.66 46.23 46.30 46.02 45.87 46.22 46.77 47.46 47.90 48.76 49.23 47.55 40.46 49.18 53.47 52.79 42.60 32.29 34.87 39.19 43.55 44.09 40.09 38.67 37.09 40.06 40.08 41.67 41.44 40.82 45.94 47.16 46.72 48.28 45.14 41.02 38.02 40.75 39.92 40.81 40.69 38.77 41.10 41.49 39.41 32.91
46.33 46.10 45.89 45.77 45.58 45.28 45.76 46.16 46.78 47.36 47.75 46.72 44.63 33.75 49.65 52.44 37.55 37.38 33.76 37.47 40.45 40.84 43.44 41.64 42.47 40.83 38.88 39.81 39.51 39.40 39.62 44.29 46.47 45.45 42.75 46.07 41.57 36.75 37.70 43.60 43.24 40.77 41.41 40.79 35.04 34.13 38.41
45.87 46.35 46.20 45.58 45.47 45.31 45.36 45.59 46.04 47.01 47.13 47.07 38.85 38.07 48.81 47.18 31.35 32.59 37.85 37.88 40.22 39.34 39.50 39.77 38.85 41.22 42.67 39.79 36.82 39.67 41.42 46.12 47.07 44.13 41.84 43.05 36.81 33.10 36.57 42.05 41.05 38.11 40.60 40.38 40.73 39.15 32.79
46.02 45.97 45.70 45.09 45.20 45.31 45.22 45.55 45.72 46.74 47.16 46.45 37.33 32.50 38.32 40.57 38.41 33.64 35.14 35.34 35.42 40.83 39.44 40.49 39.87 40.87 39.60 37.84 40.77 38.96 40.24 44.02 44.25 43.41 41.07 41.69 37.02 35.31 33.08 38.44 40.98 36.39 39.64 40.48 38.79 33.49 35.23
45.42 45.37 45.58 45.73 45.28 45.13 45.04 45.14 46.20 46.67 46.99 45.31 37.92 34.06 39.57 32.21 33.78 36.39 36.82 35.02 33.59 34.61 39.78 40.65 37.17 37.65 37.77 34.93 36.93 36.80 40.05 41.79 42.29 40.74 40.94 39.72 32.75 36.58 38.94 40.60 40.48 39.68 39.97 40.58 37.79 37.78 33.32
45.54 45.55 45.15 45.09 45.48 45.63 45.37 45.73 46.05 46.37 46.38 42.38 33.92 35.06 38.57 36.95 37.95 36.25 35.60 33.23 32.14 34.57 36.51 36.02 35.27 37.91 38.69 35.67 37.41 35.09 38.93 39.92 39.14 40.55 40.20 39.38 34.25 35.00 32.36 37.75 38.56 36.27 39.90 41.07 40.36 40.46 39.65
45.37 45.54 45.07 44.97 45.32 45.01 45.52 45.58 45.91 45.93 45.85 41.55 43.39 43.32 38.10 34.99 35.01 33.57 33.85 34.98 34.53 34.86 37.55 38.98 38.56 37.67 36.98 38.77 42.34 42.88 42.97 42.80 41.67 38.96 37.50 36.92 35.31 32.83 28.52 35.29 35.70 31.54 37.16 39.29 40.55 42.01 41.20
45.29 45.26 45.29 44.86 44.71 44.90 45.29 45.50 45.50 45.55 45.48 44.19 43.44 41.04 34.29 29.44 33.24 33.38 35.10 36.10 35.33 36.50 33.78 37.66 39.62 37.71 41.58 45.04 45.31 43.29 42.31 42.48 40.52 39.86 41.37 36.24 35.99 34.88 29.83 31.99 24.87 37.13 43.04 42.85 40.56 41.56 43.08
45.31 44.88 44.92 44.52 44.34 44.94 45.22 45.47 45.40 45.40 45.73 45.82 44.85 40.88 36.31 30.28 33.72 33.47 34.51 35.29 37.10 38.48 37.27 37.60 39.73 42.96 45.23 42.71 36.48 32.08 33.96 35.28 37.26 40.49 39.07 38.81 35.77 32.11 28.25 28.63 32.70 36.21 40.09 39.93 38.48 38.35 43.50
44.90 44.76 44.54 44.50 44.57 44.80 44.66 44.83 44.97 44.97 45.02 44.65 41.61 44.06 38.13 31.18 31.08 35.76 33.60 35.61 33.66 34.80 35.75 38.49 42.95 44.85 43.13 38.33 33.25 26.74 25.75 30.74 30.27 34.15 40.94 39.56 38.20 33.98 31.15 25.58 23.26 36.21 41.46 44.32 42.09 33.25 43.61
44.67 44.49 44.27 44.18 44.38 44.42 44.25 44.38 44.78 44.69 44.74 43.84 39.55 41.93 37.42 31.62 35.97 35.15 31.35 33.11 38.59 36.82 33.92 37.58 38.79 39.07 42.17 34.20 30.57 28.75 27.80 34.22 28.47 28.79 30.66 32.04 31.58 28.20 30.60 28.07 31.92 39.80 41.66 43.70 30.74 35.43 45.01
44.37 44.12 43.96 44.03 44.06 43.89 43.54 43.84 43.87 44.38 44.19 42.63 39.76 42.04 36.99 35.86 36.65 38.54 37.04 36.78 37.89 38.28 33.83 37.82 37.06 37.88 35.92 30.09 29.40 30.32 29.61 31.71 31.33 34.33 32.86 31.41 29.73 29.68 30.77 27.95 25.52 42.74 42.51 36.19 41.46 44.40 44.10
43.74 43.45 43.24 43.46 43.42 43.52 43.60 43.91 43.72 43.76 43.68 43.48 38.09 42.75 42.85 35.14 37.70 41.52 41.10 43.02 42.33 42.15 38.73 38.90 36.63 36.63 36.92 34.84 34.31 32.33 29.31 33.61 32.45 27.77 37.97 31.57 35.87 33.98 34.03 33.72 42.32 45.44 44.73 45.87 44.49 42.86 43.35